Location: Moy Burn
(57.3833°N, 4.0667°W)
Time: 09:39:41
(UTC+00:00)

Cosmos 1763 Rocket - Pass Details

Date: 08 August 2020
Orbit: 732 x 780 km, 74.0° (Epoch: 19 September)

Event Time Altitude Azimuth Distance (km) Brightness Sun altitude
Rises 22:19:31 0° 329° (NNW) 3,273 8.9 -12.5°
Reaches altitude 10° 22:21:56 10° 325° (NW) 2,345 7.5 -12.7°
Maximum altitude 22:27:08 56° 249° (WSW) 928 4.0 -13.1°
Enters shadow 22:31:09 17° 175° (S) 1,901 5.0 -13.3°
